This is the latest recevied weather packets stored in our database for station/object KD0RII. If no packets are shown the sender has not sent any weather packets the latest 10 day(s).
| Time | Temp. | Humidity | Pressure | Rain* | Wind** | Luminosity | Snow |
|---|---|---|---|---|---|---|---|
| 1777899531 | 17.78° C | 61% | 1005.3 hPa | 0 mm | - | 78 W/m² | - |
| 1777899229 | 17.78° C | 62% | 1005.4 hPa | 0 mm | - | 77 W/m² | - |
| 1777898926 | 17.22° C | 63% | 1005.3 hPa | 0 mm | - | 73 W/m² | - |
| 1777898623 | 17.22° C | 62% | 1005.3 hPa | 0 mm | - | 70 W/m² | - |
| 1777898320 | 16.67° C | 64% | 1005.3 hPa | 0 mm | - | 65 W/m² | - |
| 1777898018 | 16.67° C | 64% | 1005.3 hPa | 0 mm | - | 56 W/m² | - |
| 1777897714 | 16.11° C | 64% | 1005.5 hPa | 0 mm | - | 38 W/m² | - |
| 1777897411 | 16.11° C | 64% | 1005.5 hPa | 0 mm | - | 32 W/m² | - |
| 1777897106 | 16.11° C | 64% | 1005.4 hPa | 0 mm | - | 29 W/m² | - |
| 1777896803 | 16.11° C | 63% | 1005.4 hPa | 0 mm | - | 28 W/m² | - |
| 1777896500 | 16.11° C | 64% | 1005.4 hPa | 0 mm | - | 25 W/m² | - |
| 1777896197 | 16.11° C | 63% | 1005.4 hPa | 0 mm | - | 23 W/m² | - |
| 1777895895 | 16.11° C | 64% | 1005.2 hPa | 0 mm | - | 23 W/m² | - |
| 1777895593 | 16.11° C | 64% | 1005.2 hPa | 0 mm | - | 23 W/m² | - |
| 1777895290 | 16.11° C | 63% | 1005.3 hPa | 0 mm | - | 19 W/m² | - |
| 1777894988 | 16.11° C | 63% | 1005.2 hPa | 0 mm | - | 15 W/m² | - |
| 1777894685 | 16.11° C | 63% | 1005.3 hPa | 0 mm | - | 10 W/m² | - |
| 1777894381 | 16.11° C | 62% | 1005.2 hPa | 0 mm | - | 7 W/m² | - |
| 1777894079 | 16.11° C | 62% | 1005.2 hPa | 0 mm | - | 4 W/m² | - |
| 1777893775 | 16.11° C | 62% | 1005.2 hPa | 0 mm | - | 2 W/m² | - |
| 1777893473 | 16.11° C | 62% | 1005.4 hPa | 0 mm | - | 1 W/m² | - |
| 1777893169 | 16.11° C | 61% | 1005.5 hPa | 0 mm | - | 1 W/m² | - |
| 1777892865 | 16.67° C | 61% | 1005.2 hPa | 0 mm | - | 0 W/m² | - |
| 1777892562 | 16.67° C | 60% | 1005.3 hPa | 0 mm | - | 0 W/m² | - |
| 1777892257 | 16.67° C | 59% | 1005.2 hPa | 0 mm | - | 0 W/m² | - |
* Rain latest hour (hover to see other rain measurements)
** Current wind speed in m/s (hover to see current wind gust speed)